timestamp,wind_dir_avg,wind_spd_avg,wind_spd_max_dir,wind_spd_gust,battery_voltage,lat,long
2023-05-31 00:04:00+00:00,210.0,6.89,221.0,8.35,12.89,47.59359,-54.27349
2023-05-31 00:14:00+00:00,200.0,7.68,211.0,8.53,12.41,47.59359,-54.27349
2023-05-31 00:24:00+00:00,208.0,7.66,201.0,8.95,12.41,47.59359,-54.27349
2023-05-31 00:34:00+00:00,205.0,8.38,203.0,9.7,12.41,47.59359,-54.27349
2023-05-31 00:44:00+00:00,211.0,7.6,212.0,8.39,12.41,47.59359,-54.27349
2023-05-31 00:54:00+00:00,204.0,8.07,204.0,8.73,12.41,47.59359,-54.27349
2023-05-31 01:04:00+00:00,212.0,8.71,216.0,9.65,12.41,47.59359,-54.27349
2023-05-31 01:14:00+00:00,212.0,8.5,212.0,9.39,12.41,47.59359,-54.27349
2023-05-31 01:24:00+00:00,211.0,7.45,216.0,8.43,12.41,47.59359,-54.27349
2023-05-31 01:34:00+00:00,207.0,7.36,211.0,8.46,12.41,47.59359,-54.27349
2023-05-31 01:44:00+00:00,207.0,7.62,213.0,8.61,12.41,47.59359,-54.27349
2023-05-31 01:54:00+00:00,207.0,7.71,205.0,8.25,12.41,47.59359,-54.27349
2023-05-31 02:04:00+00:00,210.0,6.77,218.0,7.79,12.41,47.59359,-54.27349
2023-05-31 02:14:00+00:00,216.0,6.52,222.0,7.82,12.33,47.59359,-54.27349
2023-05-31 02:24:00+00:00,210.0,6.84,209.0,7.48,12.33,47.59359,-54.27349
2023-05-31 02:34:00+00:00,218.0,7.47,220.0,8.4,12.33,47.59359,-54.27349
2023-05-31 02:44:00+00:00,211.0,6.76,210.0,7.57,12.33,47.59359,-54.27349
2023-05-31 02:54:00+00:00,213.0,5.88,209.0,6.5,12.33,47.59359,-54.27349
2023-05-31 03:04:00+00:00,217.0,7.72,222.0,8.81,12.33,47.59359,-54.27349
2023-05-31 03:14:00+00:00,211.0,6.5,215.0,7.11,12.33,47.59359,-54.27349
2023-05-31 03:24:00+00:00,214.0,6.41,219.0,7.29,12.33,47.59359,-54.27349
2023-05-31 03:34:00+00:00,218.0,5.51,233.0,6.91,12.33,47.59359,-54.27349
2023-05-31 03:44:00+00:00,223.0,7.13,225.0,7.83,12.33,47.59359,-54.27349
2023-05-31 03:54:00+00:00,226.0,7.03,229.0,7.77,12.33,47.59359,-54.27349
2023-05-31 04:04:00+00:00,226.0,5.96,227.0,6.93,12.33,47.59359,-54.27349
2023-05-31 04:14:00+00:00,228.0,6.49,232.0,7.33,12.33,47.59359,-54.27349
2023-05-31 04:24:00+00:00,232.0,6.42,234.0,7.09,12.33,47.59359,-54.27349
2023-05-31 04:34:00+00:00,187.0,4.22,190.0,4.59,12.33,47.59359,-54.27349
2023-05-31 04:44:00+00:00,219.0,5.81,233.0,7.3,12.33,47.59359,-54.27349
2023-05-31 04:54:00+00:00,234.0,5.05,242.0,7.02,12.33,47.59359,-54.27349
2023-05-31 05:04:00+00:00,233.0,6.33,240.0,7.44,12.33,47.59359,-54.27349
2023-05-31 05:14:00+00:00,239.0,6.4,239.0,7.06,12.33,47.59359,-54.27349
2023-05-31 05:24:00+00:00,197.0,3.05,197.0,3.34,12.33,47.59359,-54.27349
2023-05-31 05:34:00+00:00,233.0,4.57,244.0,6.12,12.33,47.59359,-54.27349
2023-05-31 05:44:00+00:00,245.0,6.37,245.0,6.71,12.33,47.59359,-54.27349
2023-05-31 05:54:00+00:00,244.0,6.28,246.0,6.91,12.33,47.59359,-54.27349
2023-05-31 06:04:00+00:00,236.0,4.69,243.0,6.18,12.33,47.59359,-54.27349
2023-05-31 06:14:00+00:00,251.0,5.91,251.0,6.58,12.25,47.59359,-54.27349
2023-05-31 06:24:00+00:00,237.0,6.6,240.0,7.02,12.25,47.59359,-54.27349
2023-05-31 06:34:00+00:00,246.0,6.05,245.0,6.34,12.25,47.59359,-54.27349
2023-05-31 06:44:00+00:00,247.0,5.46,250.0,6.01,12.25,47.59359,-54.27349
2023-05-31 06:54:00+00:00,198.0,3.28,224.0,4.21,12.25,47.59359,-54.27349
2023-05-31 07:04:00+00:00,178.0,3.14,177.0,3.43,12.25,47.59359,-54.27349
2023-05-31 07:14:01+00:00,182.0,3.87,183.0,4.17,12.25,47.59359,-54.27349
2023-05-31 07:24:01+00:00,178.0,3.26,179.0,3.64,12.25,47.59359,-54.27349
2023-05-31 07:34:01+00:00,189.0,2.32,189.0,2.59,12.25,47.59359,-54.27349
2023-05-31 07:44:01+00:00,242.0,6.15,242.0,6.66,12.25,47.59359,-54.27349
2023-05-31 07:54:01+00:00,242.0,5.93,244.0,7.08,12.25,47.59359,-54.27349
2023-05-31 08:04:01+00:00,179.0,4.46,183.0,5.27,12.25,47.59359,-54.27349
2023-05-31 08:14:00+00:00,230.0,4.52,243.0,6.58,12.17,47.59359,-54.27349
2023-05-31 08:24:00+00:00,262.0,7.02,265.0,7.56,12.17,47.59359,-54.27349
2023-05-31 08:34:00+00:00,294.0,5.82,292.0,6.57,12.17,47.59359,-54.27349
2023-05-31 08:44:00+00:00,240.0,5.66,242.0,6.92,12.17,47.59359,-54.27349
2023-05-31 08:54:00+00:00,239.0,6.33,240.0,6.88,12.17,47.59359,-54.27349
2023-05-31 09:04:00+00:00,225.0,6.35,226.0,7.26,12.17,47.59359,-54.27349
2023-05-31 09:14:01+00:00,215.0,5.71,232.0,7.12,12.17,47.59359,-54.27349
2023-05-31 09:24:01+00:00,188.0,4.78,189.0,5.35,12.17,47.59359,-54.27349
2023-05-31 09:34:01+00:00,196.0,4.34,221.0,5.77,12.17,47.59359,-54.27349
2023-05-31 09:44:01+00:00,190.0,4.69,217.0,5.99,12.17,47.59359,-54.27349
2023-05-31 09:54:01+00:00,235.0,6.34,234.0,7.01,12.17,47.59359,-54.27349
2023-05-31 10:04:01+00:00,230.0,5.13,243.0,6.92,12.17,47.59359,-54.27349
2023-05-31 10:14:00+00:00,237.0,6.39,240.0,7.08,12.33,47.59359,-54.27349
2023-05-31 10:24:00+00:00,213.0,4.56,235.0,6.39,12.33,47.59359,-54.27349
2023-05-31 10:34:00+00:00,219.0,5.05,238.0,7.15,12.33,47.59359,-54.27349
2023-05-31 10:44:00+00:00,232.0,5.95,236.0,6.69,12.33,47.59359,-54.27349
2023-05-31 10:54:00+00:00,183.0,4.55,183.0,4.89,12.33,47.59359,-54.27349
2023-05-31 11:04:00+00:00,191.0,5.6,211.0,6.67,12.33,47.59359,-54.27349
2023-05-31 11:14:01+00:00,225.0,5.2,237.0,6.91,12.81,47.59359,-54.27349
2023-05-31 11:24:01+00:00,238.0,5.84,240.0,6.51,12.81,47.59359,-54.27349
2023-05-31 11:34:01+00:00,210.0,2.98,238.0,5.97,12.81,47.59359,-54.27349
2023-05-31 11:44:01+00:00,240.0,5.8,243.0,6.36,12.81,47.59359,-54.27349
2023-05-31 11:54:01+00:00,241.0,5.55,244.0,6.5,12.81,47.59359,-54.27349
2023-05-31 12:04:01+00:00,219.0,4.72,236.0,6.28,12.81,47.59359,-54.27349
2023-05-31 12:14:00+00:00,219.0,4.64,237.0,6.04,13.44,47.59359,-54.27349
2023-05-31 12:24:00+00:00,219.0,4.28,239.0,6.33,13.44,47.59359,-54.27349
2023-05-31 12:34:00+00:00,194.0,4.37,194.0,4.89,13.44,47.59359,-54.27349
2023-05-31 12:44:00+00:00,194.0,4.23,191.0,4.78,13.44,47.59359,-54.27349
2023-05-31 12:54:00+00:00,220.0,4.82,238.0,6.44,13.44,47.59359,-54.27349
2023-05-31 13:04:00+00:00,236.0,5.03,242.0,6.21,13.44,47.59359,-54.27349
2023-05-31 13:14:00+00:00,231.0,4.38,245.0,5.82,13.53,47.59359,-54.27349
2023-05-31 13:24:00+00:00,227.0,4.41,238.0,5.48,13.53,47.59359,-54.27349
2023-05-31 13:34:00+00:00,200.0,4.05,217.0,5.09,13.53,47.59359,-54.27349
2023-05-31 13:44:00+00:00,192.0,5.2,200.0,6.0,13.53,47.59359,-54.27349
2023-05-31 13:54:00+00:00,191.0,4.96,190.0,5.6,13.53,47.59359,-54.27349
2023-05-31 14:04:00+00:00,212.0,4.94,214.0,5.7,13.53,47.59359,-54.27349
2023-05-31 14:14:00+00:00,192.0,2.86,188.0,3.31,13.68,47.59359,-54.27349
2023-05-31 14:24:00+00:00,202.0,2.82,221.0,3.37,13.68,47.59359,-54.27349
2023-05-31 14:34:00+00:00,222.0,5.15,230.0,6.27,13.68,47.59359,-54.27349
2023-05-31 14:44:00+00:00,213.0,4.42,221.0,4.85,13.68,47.59359,-54.27349
2023-05-31 14:54:00+00:00,209.0,3.9,234.0,5.69,13.68,47.59359,-54.27349
2023-05-31 15:04:00+00:00,217.0,5.41,225.0,6.09,13.68,47.59359,-54.27349
2023-05-31 15:14:00+00:00,213.0,6.16,212.0,6.82,13.68,47.59359,-54.27349
2023-05-31 15:24:00+00:00,222.0,4.99,221.0,5.96,13.68,47.59359,-54.27349
2023-05-31 15:34:00+00:00,229.0,4.24,231.0,5.05,13.68,47.59359,-54.27349
2023-05-31 15:44:00+00:00,224.0,3.83,229.0,4.38,13.68,47.59359,-54.27349
2023-05-31 15:54:00+00:00,210.0,4.41,203.0,5.13,13.68,47.59359,-54.27349
2023-05-31 16:04:00+00:00,233.0,5.71,231.0,6.5,13.68,47.59359,-54.27349
2023-05-31 16:14:00+00:00,234.0,6.5,242.0,7.49,13.84,47.59359,-54.27349
2023-05-31 16:24:00+00:00,226.0,7.15,230.0,8.15,13.84,47.59359,-54.27349
2023-05-31 16:34:00+00:00,228.0,6.75,233.0,7.53,13.84,47.59359,-54.27349
2023-05-31 16:44:00+00:00,215.0,5.04,214.0,5.7,13.84,47.59359,-54.27349
2023-05-31 16:54:00+00:00,213.0,5.29,218.0,6.09,13.84,47.59359,-54.27349
2023-05-31 17:04:00+00:00,222.0,5.54,231.0,6.17,13.84,47.59359,-54.27349
2023-05-31 17:14:00+00:00,220.0,5.15,227.0,6.08,13.84,47.59359,-54.27349
2023-05-31 17:24:00+00:00,219.0,5.64,226.0,6.48,13.84,47.59359,-54.27349
2023-05-31 17:34:00+00:00,209.0,4.63,213.0,5.15,13.84,47.59359,-54.27349
2023-05-31 17:44:00+00:00,212.0,4.26,216.0,4.64,13.84,47.59359,-54.27349
2023-05-31 17:54:00+00:00,204.0,4.96,204.0,5.46,13.84,47.59359,-54.27349
2023-05-31 18:04:00+00:00,203.0,4.54,206.0,4.84,13.84,47.59359,-54.27349
2023-05-31 18:14:00+00:00,210.0,4.79,211.0,5.2,13.76,47.59359,-54.27349
2023-05-31 18:24:00+00:00,215.0,5.29,216.0,5.8,13.76,47.59359,-54.27349
2023-05-31 18:34:00+00:00,221.0,5.17,220.0,5.68,13.76,47.59359,-54.27349
2023-05-31 18:44:00+00:00,211.0,4.19,210.0,4.5,13.76,47.59359,-54.27349
2023-05-31 18:54:00+00:00,207.0,3.06,206.0,3.26,13.76,47.59359,-54.27349
2023-05-31 19:04:00+00:00,194.0,3.13,202.0,3.47,13.76,47.59359,-54.27349
2023-05-31 19:14:00+00:00,209.0,3.25,211.0,3.52,13.68,47.59359,-54.27349
2023-05-31 19:24:00+00:00,196.0,2.34,197.0,2.61,13.68,47.59359,-54.27349
2023-05-31 19:34:00+00:00,210.0,1.69,206.0,1.91,13.68,47.59359,-54.27349
2023-05-31 19:44:00+00:00,212.0,1.47,211.0,1.91,13.68,47.59359,-54.27349
2023-05-31 19:54:00+00:00,192.0,2.1,196.0,2.3,13.68,47.59359,-54.27349
2023-05-31 20:04:00+00:00,188.0,1.42,191.0,1.78,13.68,47.59359,-54.27349
2023-05-31 20:14:00+00:00,188.0,1.85,187.0,2.08,13.68,47.59359,-54.27349
2023-05-31 20:24:00+00:00,208.0,1.99,210.0,2.19,13.68,47.59359,-54.27349
2023-05-31 20:34:00+00:00,215.0,2.13,230.0,2.65,13.68,47.59359,-54.27349
2023-05-31 20:44:00+00:00,255.0,4.7,256.0,5.44,13.68,47.59359,-54.27349
2023-05-31 20:54:00+00:00,260.0,3.96,263.0,5.15,13.68,47.59359,-54.27349
2023-05-31 21:04:00+00:00,291.0,1.17,284.0,1.62,13.68,47.59359,-54.27349
2023-05-31 21:14:00+00:00,274.0,0.65,277.0,0.74,13.68,47.59359,-54.27349
2023-05-31 21:24:00+00:00,27.0,1.35,35.0,1.65,13.68,47.59359,-54.27349
2023-05-31 21:34:00+00:00,255.0,0.2,346.0,0.43,13.68,47.59359,-54.27349
2023-05-31 21:44:00+00:00,295.0,0.96,293.0,1.26,13.68,47.59359,-54.27349
2023-05-31 21:54:00+00:00,282.0,0.47,297.0,0.78,13.68,47.59359,-54.27349
2023-05-31 22:04:00+00:00,191.0,0.25,178.0,0.43,13.68,47.59359,-54.27349
2023-05-31 22:14:01+00:00,128.0,0.59,131.0,0.67,13.44,47.59359,-54.27349
2023-05-31 22:24:01+00:00,129.0,0.22,125.0,0.77,13.44,47.59359,-54.27349
2023-05-31 22:34:01+00:00,140.0,0.51,151.0,0.77,13.44,47.59359,-54.27349
2023-05-31 22:44:01+00:00,265.0,0.13,265.0,0.21,13.44,47.59359,-54.27349
2023-05-31 22:54:01+00:00,335.0,0.6,336.0,0.7,13.44,47.59359,-54.27349
2023-05-31 23:04:01+00:00,322.0,0.75,324.0,0.82,13.44,47.59359,-54.27349
2023-05-31 23:14:01+00:00,311.0,0.87,317.0,0.96,12.97,47.59359,-54.27349
2023-05-31 23:24:01+00:00,333.0,1.09,333.0,1.16,12.97,47.59359,-54.27349
2023-05-31 23:34:01+00:00,345.0,1.31,346.0,1.37,12.97,47.59359,-54.27349
2023-05-31 23:44:01+00:00,19.0,1.19,20.0,1.31,12.97,47.59359,-54.27349
2023-05-31 23:54:01+00:00,31.0,1.32,33.0,1.41,12.97,47.59359,-54.27349
